Weather History for KRQE - July, 2013

Change the Weather History Date:

Thursday, July 25, 2013

  Actual Average Record
Temperature  
Mean Temperature 68 °F -  
Max Temperature 82 °F 82 °F 93 °F (2014)
Min Temperature 55 °F 53 °F 46 °F (1979)
Cooling Degree Days 4    
Growing Degree Days 18 (Base 50)    
Moisture  
Dew Point 57 °F    
Average Humidity 76    
Maximum Humidity 96    
Minimum Humidity 36    
Precipitation  
Precipitation 0.61 in - - ()
Sea Level Pressure  
Sea Level Pressure 30.00 in    
Wind  
Wind Speed 2 mph (SE)    
Max Wind Speed 20 mph    
Max Gust Speed 28 mph    
Visibility 9 miles    
Events Rain    
Averages and records for this station are not official NWS values.
T = Trace of Precipitation, MM = Missing Value Source: NWS Daily Summary

Daily Weather History Graph

Daily Weather History Graph

Search for Another Location

Airport or City:

Trip Planner

Search our weather history database for the weather conditions in past years. The results will help you decide how hot, cold, wet, or windy it might be!

Date:

Astronomy

Jul. 25, 2013 Rise Set
Actual Time 6:19 AM MDT 8:25 PM MDT
Civil Twilight 5:50 AM MDT 8:54 PM MDT
Nautical Twilight 5:15 AM MDT 9:29 PM MDT
Astronomical Twilight 4:38 AM MDT 10:06 PM MDT
Moon 10:18 PM MDT (7/25) 9:43 AM MDT (7/25)
Length of Visible Light 15h 03m
Length of Day
14h 06m
Waning Gibbous, 88% of the Moon is Illuminated
Jul 25
Waning Gibbous
Jul 29
Last Quarter
Aug 6
New
Aug 14
First Quarter
Aug 20
Full

Hourly Weather History & Observations

Time (MDT) Temp. Heat Index Dew Point Humidity Pressure Visibility Wind Dir Wind Speed Gust Speed Precip Events Conditions
12:53 AM 63.0 °F - 55.0 °F 75% 29.88 in 10.0 mi Calm Calm - N/A   Scattered Clouds
1:53 AM 62.1 °F - 55.0 °F 78% 29.90 in 10.0 mi Calm Calm - N/A   Partly Cloudy
2:53 AM 60.1 °F - 55.9 °F 86% 29.91 in 10.0 mi ESE 3.5 mph - N/A   Clear
3:53 AM 60.1 °F - 55.0 °F 83% 29.88 in 10.0 mi Calm Calm - N/A   Clear
4:53 AM 57.0 °F - 55.0 °F 93% 29.89 in 10.0 mi Calm Calm - N/A   Clear
5:53 AM 55.0 °F - 54.0 °F 96% 29.97 in 6.0 mi Calm Calm - N/A   Clear
7:53 AM 60.1 °F - 55.9 °F 86% 30.01 in 10.0 mi Calm Calm - N/A   Clear
8:53 AM 64.0 °F - 55.9 °F 75% 30.01 in 10.0 mi Calm Calm - N/A   Clear
9:53 AM 68.0 °F - 55.9 °F 65% 30.00 in 10.0 mi Calm Calm - N/A   Clear
10:53 AM 71.1 °F - 57.0 °F 61% 29.99 in 10.0 mi Calm Calm - N/A   Partly Cloudy
11:53 AM 75.0 °F - 57.0 °F 53% 29.97 in 10.0 mi Variable 3.5 mph - N/A   Clear
12:53 PM 79.0 °F - 51.1 °F 38% 29.94 in 10.0 mi Calm Calm - N/A   Clear
1:53 PM 82.9 °F 81.8 °F 53.1 °F 36% 29.89 in 10.0 mi Variable 4.6 mph - N/A   Partly Cloudy
2:34 PM 66.2 °F - 57.2 °F 73% 30.30 in 1.8 mi NNE 15.0 mph 27.6 mph 0.03 in Rain Heavy Rain
2:53 PM 62.1 °F - 57.9 °F 86% 30.01 in 1.2 mi NE 19.6 mph - 0.41 in Rain Heavy Rain
3:08 PM 62.6 °F - 59.0 °F 88% 30.31 in 2.0 mi South 10.4 mph - 0.18 in Rain Heavy Rain
3:18 PM 62.6 °F - 57.2 °F 82% 30.29 in 7.0 mi SE 11.5 mph - 0.20 in Rain Light Rain
3:53 PM 61.0 °F - 57.0 °F 87% 30.02 in 10.0 mi Calm Calm - 0.20 in Rain Light Rain
4:53 PM 64.0 °F - 57.9 °F 80% 30.01 in 10.0 mi Calm Calm - 0.00 in   Scattered Clouds
5:53 PM 66.0 °F - 59.0 °F 78% 29.99 in 10.0 mi South 3.5 mph - N/A   Clear
6:53 PM 69.1 °F - 60.1 °F 73% 29.97 in 10.0 mi Calm Calm - N/A   Clear
7:53 PM 68.0 °F - 60.1 °F 76% 29.97 in 10.0 mi Calm Calm - N/A   Clear
8:53 PM 66.0 °F - 60.1 °F 81% 29.96 in 10.0 mi Calm Calm - N/A   Clear
9:53 PM 64.0 °F - 61.0 °F 90% 29.98 in 10.0 mi Calm Calm - N/A   Clear
10:53 PM 64.9 °F - 57.0 °F 75% 29.98 in 10.0 mi SSW 5.8 mph - N/A   Clear
11:53 PM 64.9 °F - 57.9 °F 78% 29.97 in 10.0 mi SSW 3.5 mph - N/A   Clear